Location: Tel Aviv
(32.0670°N, 34.7670°E)
Time: 11:23:21
(UTC+03:00)

Transit 2A - Pass Details

Date: 27 January 2022
Orbit: 598 x 960 km, 66.7° (Epoch: 20 May)

Event Time Altitude Azimuth Distance (km) Brightness Sun altitude
Rises 20:54:42 0° 319° (NW) 3,483 9.9 -47.6°
Enters shadow 20:56:43 - 312° (NW) 2,802 9.3 -48.0°
Reaches altitude 10° 20:57:44 10° 307° (NW) 2,481 - -48.2°
Maximum altitude 21:02:10 24° 255° (WSW) 1,624 - -49.1°
Drops below altitude 10° 21:06:17 10° 203° (SSW) 2,276 - -50.0°
Sets 21:08:57 0° 189° (S) 3,130 - -50.5°
